Starlink 30275

operational
NORAD ID: 57667 Int'l Des: 2023-124 Owner: SPXS Country: US Constellation: starlink
LEOCIRCULAR

About Starlink 30275

Description loading...

Live Position

Loading 3D Globe...

Upcoming Passes

Altitude History

Altitude vs Time

uPlot chart will show altitude changes over time

Two-Line Element Set

1 57667U 23124E 25339.25921619 .00003612 00000-0 13400-3 0 9993
2 57667 53.1615 285.6938 0001230 91.4360 268.6781 15.30204847129109
Epoch: Dec 5, 2025 • Age: 16 hours

Current Status

Altitude 475.1 km
Velocity 7.63 km/s
Sub-Earth Point 14.72°N, 110.67°W
Launch Date Aug 22, 2023
Age 2.2 years
Type internet

Technical Details

Classification Payload
Mass 730.00 kg
Dry Mass 700.00 kg
Total Mass 730.00 kg
Length 0.30 m
Diameter 4.10 m
Span 29.00 m
Shape Box + pan
Manufacturer SPXS
Bus Type Starlink V2M
Phase Status In Orbit
Owner/State SPXS/US

Large Constellations

Loading constellations...